Weather past 2 weeks in Willemstad, Curaçao

Now
84 °F

Passing clouds.


Feels Like: 94 °F
Forecast: 81 / 83 °F
Wind: 10 mph from Southeast

Location: Hato Airport - Curacao

Current Time: Aug 20, 2014 at 9:22:19 AM

Latest Report: Aug 20, 2014 at 9:00 AM


Visibility: N/A

Pressure: 29.95 "Hg

Humidity: 79%

Dew point: 77 °F

Location of WillemstadLocation

Historic Weather in Willemstad — Graph

°F

Willemstad temperature yesterday

Maximum temperature yesterday: 90 °F (at 11:00 AM)
Minimum temperature yesterday: 79 °F (at 6:00 AM)
Average temperature yesterday: 85 °F

Past Weeks' High & Low Weather Summary

 TemperatureHumidityPressure
High91 °F (Aug 15, 12:00 PM)94% (Aug 16, 7:00 AM)30.01 "Hg (Aug 16, 7:00 AM)
Low77 °F (Aug 16, 7:00 AM)55% (Aug 9, 1:00 PM)29.83 "Hg (Aug 6, 5:00 PM)
Average84 °F76%29.93 "Hg
* Reported Aug 5 7:00 AM — Aug 20 7:00 AM, Willemstad, Weather by CustomWeather, © 2014

Note: Actual official high and low records may vary slightly from our data, if they occured in-between our weather recording intervals... More about our weather records

Advertising

Willemstad weather history for previous 24 hours

 ConditionsComfort  
Time TempWeatherWind HumidityBarometerVisibility
7:00 AM
Aug 20
79 °FScattered clouds.6 mph94%29.92 "HgN/A
6:00 AM79 °FSprinkles. Passing clouds.9 mph89%29.92 "HgN/A
5:00 AM81 °FPassing clouds.8 mph84%29.89 "HgN/A
4:00 AM82 °FPassing clouds.12 mph84%29.89 "HgN/A
3:00 AM82 °FPassing clouds.12 mph84%29.89 "HgN/A
2:00 AM82 °FPassing clouds.13 mph84%29.89 "HgN/A
1:00 AM82 °FPassing clouds.12 mph84%29.92 "HgN/A
12:00 AM82 °FPassing clouds.10 mph84%29.95 "HgN/A
11:00 PM
Aug 19
82 °FPassing clouds.12 mph79%29.95 "HgN/A
10:00 PM82 °FPassing clouds.12 mph79%29.95 "HgN/A
9:00 PM82 °FPassing clouds.13 mph79%29.92 "HgN/A
7:00 PM82 °FPassing clouds.14 mph84%29.89 "HgN/A
6:00 PM84 °FPassing clouds.12 mph79%29.86 "HgN/A
5:00 PM86 °FScattered clouds.13 mph70%29.86 "HgN/A
4:00 PM88 °FScattered clouds.14 mph70%29.86 "HgN/A
3:00 PM88 °FScattered clouds.14 mph70%29.89 "HgN/A
2:00 PM88 °FScattered clouds.14 mph70%29.89 "HgN/A
1:00 PM90 °FScattered clouds.15 mph67%29.92 "HgN/A
12:00 PM88 °FScattered clouds.14 mph70%29.95 "HgN/A
11:00 AM90 °FScattered clouds.12 mph63%29.95 "HgN/A
10:00 AM88 °FScattered clouds.12 mph70%29.95 "HgN/A
9:00 AM86 °FScattered clouds.13 mph75%29.95 "HgN/A
Weather by CustomWeather, © 2014

See weather overviewHow to use our weather pages